Location: Caltech
(34.1382°N, 118.1253°W)
Time: 11:40:50
(UTC-07:00)

SL-08 R/B - Visible Passes

Search period start: 18 April 2014 00:00
Search period end: 28 April 2014 00:00
Orbit: 676 x 744 km, 98.1° (Epoch: 17 April)

Date Brightness Start Highest point End Pass type
(mag) Time Alt. Az. Time Alt. Az. Time Alt. Az.
18 Apr 5.7 02:41:13 21° NNE 02:41:13 21° NNE 02:43:14 10° NNE visible
18 Apr 5.5 04:20:15 13° NW 04:20:15 13° NW 04:20:57 10° NW visible
19 Apr 5.0 03:26:40 27° N 03:26:40 27° N 03:28:51 10° N visible
20 Apr 5.8 02:33:05 20° NE 02:33:05 20° NE 02:35:13 10° NNE visible
20 Apr 5.3 04:12:07 17° NW 04:12:07 17° NW 04:13:23 10° NW visible
21 Apr 4.9 03:18:33 31° N 03:18:33 31° N 03:21:02 10° N visible
22 Apr 5.8 02:24:58 18° NE 02:24:58 18° NE 02:27:07 10° NNE visible
22 Apr 5.0 04:04:00 21° NW 04:04:00 21° NW 04:05:46 10° NNW visible
23 Apr 4.8 03:10:25 34° NNE 03:10:25 34° NNE 03:13:11 10° N visible
24 Apr 5.9 02:16:50 16° NE 02:16:50 16° NE 02:18:56 10° NNE visible
24 Apr 4.8 03:55:52 25° NW 03:55:52 25° NW 03:58:05 10° NNW visible
25 Apr 4.8 03:02:17 34° NNE 03:02:17 34° NNE 03:05:17 10° N visible
25 Apr 5.6 04:41:19 10° WNW 04:41:19 10° WNW 04:41:23 10° WNW visible
26 Apr 6.1 02:08:43 13° ENE 02:08:43 13° ENE 02:10:35 10° NE visible
26 Apr 4.5 03:47:45 31° NW 03:47:45 31° NW 03:50:22 10° NNW visible
27 Apr 4.9 02:54:10 33° NE 02:54:10 33° NE 02:57:21 10° N visible
27 Apr 5.3 04:33:12 13° WNW 04:33:12 13° WNW 04:34:06 10° NW visible
